This demonstration page uses our WeatherBlox Daily Observations layout. Learn more.

Left ArrowRight Arrow

39.92423, -83.80882

Hourly Observations for July 27, 2020

Temp ( °F °C ) Dew Point ( °F °C ) Humidity (%) Winds ( mph kmh ) Pressure ( in mb ) Visibility ( mi km ) Precip ( " mm )
12:56 am 00:56 Clear 74 23.3 71 21.7 91 91 SW 5 7 30.01 1016 10 16 N/A
1:56 am 01:56 Clear 73 22.8 72 22.2 96 96 SW 7 11 30.01 1016 10 16 N/A
2:56 am 02:56 Clear 73 22.8 73 22.8 100 100 SW 6 9 30.00 1016 10 16 N/A
3:56 am 03:56 Clear 74 23.3 74 23.3 100 100 SW 7 11 29.99 1016 10 16 N/A
4:56 am 04:56 Clear 73 22.8 73 22.8 100 100 SW 6 9 29.99 1016 10 16 N/A
5:56 am 05:56 Partly Cloudy 75 23.9 75 23.9 100 100 WSW 9 15 29.98 1015 10 16 N/A
6:56 am 06:56 Mostly Sunny 74 23.3 74 23.3 100 100 SW 6 9 29.99 1016 10 16 N/A
7:56 am 07:56 Sunny 76 24.4 76 24.4 100 100 SW 6 9 29.99 1016 10 16 N/A
8:56 am 08:56 Sunny 79 26.1 77 25 94 94 SW 10 17 29.99 1016 10 16 N/A
9:56 am 09:56 Mostly Sunny 82 27.8 76 24.4 82 82 WSW 13 20 29.98 1015 10 16 N/A
10:56 am 10:56 Mostly Cloudy 84 28.9 76 24.4 77 77 WSW 9 15 29.98 1015 10 16 N/A
11:26 am 11:26 Mostly Cloudy 84 29 75 24 74 74 SW 12 19 29.94 1014 10 16 N/A
11:42 am 11:42 Partly Cloudy 86 30 77 25 75 75 WSW 12 19 29.94 1014 10 16 N/A
11:56 am 11:56 Mostly Sunny 87 30.6 77 25 72 72 W 7 11 29.97 1015 10 16 N/A
12:56 pm 12:56 Partly Cloudy 89 31.7 76 24.4 65 65 WSW 13 20 29.96 1014 10 16 N/A
1:56 pm 13:56 Partly Cloudy 89 31.7 74 23.3 61 61 WSW 16 26 29.91 1013 10 16 N/A
2:56 pm 14:56 Partly Cloudy 89 31.7 75 23.9 63 63 SW 10 17 29.89 1012 10 16 N/A
3:56 pm 15:56 Mostly Cloudy with Light Rain 86 30 74 23.3 67 67 SW 7 11 29.88 1012 10 16 0.00 0.00
4:56 pm 16:56 Mostly Cloudy with Nearby Thunderstorms 79 26.1 74 23.3 85 85 N 9 15 29.87 1012 8 13 0.00 0.00
5:29 pm 17:29 Cloudy with Thunderstorms 75 24 73 23 94 94 W 8 13 29.88 1012 9 14 0.03 0.76
5:56 pm 17:56 Cloudy with Strong Thunderstorms 72 22.2 72 22.2 100 100 WNW 16 26 29.92 1013 2 3 0.27 6.86
6:07 pm 18:07 Cloudy with Thunderstorms 73 23 73 23 100 100 W 8 13 29.89 1012 10 16 0.02 0.51
6:15 pm 18:15 Cloudy with Light Rain 73 23 73 23 100 100 WSW 8 13 29.90 1013 10 16 0.03 0.76
6:35 pm 18:35 Mostly Cloudy with Nearby Thunderstorms 72 22 72 22 100 100 W 13 20 29.92 1013 10 16 0.03 0.76
6:44 pm 18:44 Mostly Cloudy with Rain 72 22 72 22 100 100 WNW 8 13 29.92 1013 10 16 0.04 1.02
6:56 pm 18:56 Cloudy with Rain 72 22.2 72 22.2 100 100 W 7 11 29.94 1014 10 16 0.07 1.78
7:20 pm 19:20 Cloudy with Rain 72 22 72 22 100 100 WSW 8 13 29.93 1014 10 16 0.06 1.52
7:56 pm 19:56 Cloudy with Rain 71 21.7 71 21.7 100 100 SW 8 13 29.94 1014 10 16 0.17 4.32
8:42 pm 20:42 Partly Cloudy 72 22 72 22 100 100 SW 8 13 29.90 1013 10 16 0.02 0.51
8:56 pm 20:56 Mostly Cloudy 71 21.7 71 21.7 100 100 WSW 6 9 29.92 1013 10 16 0.02 0.51
9:17 pm 21:17 Partly Cloudy 72 22 72 22 100 100 SSW 6 9 29.88 1012 10 16 N/A
9:56 pm 21:56 Partly Cloudy 71 21.7 71 21.7 100 100 WSW 8 13 29.91 1013 10 16 N/A
10:56 pm 22:56 Mostly Clear 71 21.7 71 21.7 100 100 W 7 11 29.91 1013 10 16 N/A
11:13 pm 23:13 Mostly Cloudy 72 22 72 22 100 100 WSW 8 13 29.90 1013 10 16 N/A
11:25 pm 23:25 Cloudy 72 22 72 22 100 100 WSW 8 13 29.90 1013 10 16 N/A
11:56 pm 23:56 Cloudy 71 21.7 71 21.7 100 100 WSW 9 15 29.93 1014 10 16 N/A

Powered by AerisWeather